Showing default

KENT RIDGE 1, 41167

Orbit data source: Space-Track

KENT RIDGE 1, 41167 is a payload satellite owned by NUS (SG) in LEO that was launched on Wed, 16 Dec 2015 UTC via a PSLV launch vehicle from the Sirharikota (SRI). Payload-class satellites include a variety of spacecraft equipped with specific instruments for various scientific and technological missions. These include communications satellites like Starlink; space stations such as the ISS; scientific satellites like the Hubble; Earth observation satellites from companies like Planet Labs, Umbra, and HawkEye 360; GPS; miniature CubeSats for education and research; and military/defense satellites.

Not visible in the next 10 days
Identifier
41167, 2015-077B
Orbit
LEO
Country
Flag of SGSG / SING
Related business
Manufacturer
Berlin Space T.
Mission
Operational Amateur Imaging
Bus & Motor
LEOS-50, Unknown motor
Mass
78 kg wet, 78 kg dry
Launch date (UTC)
2015-12-16 (11 years ago)
Launch vehicle
PSLV
Launch site
Sirharikota (SRI)
Object type
Payload
Rocket body
Debris
Shape & HBR
Box, 0.2 m
Radar Cross Section
0.100 m², Medium (>0.1 m² and < 1m²)

Expand to show TLE details & history
Last TLE update: 1 day ago

TLE from 1 day ago
0 KENT RIDGE 1
1 41167U 15077B   26172.41996573  .00003269  00000-0  10298-3 0  9994
2 41167  14.9788 234.5105 0008233 298.0966  61.8524 15.23153232581742
Epoch: 2026-06-21T10:04Z
TLE epoch observation values (Epoch: 2026-06-21T10:04:45.039Z)
Latitude
0.00001°
Longitude
173.70236°
Altitude
490.908 km
Speed
7.624 km/s
True Right ascension
15h 38m 02s
True Declination
0° 00' 00"
Sunlit
Object was in full shadow at epoch
Visualization orbit readout
Latitude
Unknown
Longitude
Unknown
Altitude
Unknown
Speed
Unknown
Apparent Right ascension
Unknown
Apparent Declination
Unknown
Sunlit
N/A
Visualization observer readout
Local Sidereal Time
21:43:06
Azimuth
Unknown
Elevation
Unknown
Doppler factor
Unknown
Orbital elements
Apogee altitude
507.773 km
Perigee altitude
496.444 km
Semi-major axis
6,880.246 km
Eccentricity
0.00082
Inclination
14.9788°
RAAN
234.5105°
Arg. of periapsis
298.0966°
True anomaly
61.93563°
Mean anomaly
61.8524°
Eccentric anomaly
61.89401°
Mean motion
3.8031 °/min
Orbital period
94.66 mins
BSTAR
0.00010298
Loading maneuver chart data...
Computing Atmospheric mass density...
Loading historical data...
Loading historical data...
Loading historical data...
Loading historical data...
Loading historical data...
Loading historical data...
Loading historical data...

Documentation

Showing up to 5 results
|